Location: *
(49.0044°N, 9.5056°E)
Time: 14:35:59
(UTC+00:00)

Daily predictions for brighter satellites

Satellite Brightness Start Highest point End
(mag) Time Altitude Azimuth Time Altitude Azimuth Time Altitude Azimuth
Nadezhda 1 Rocket 4.1 17:40:49 10° SSE 17:46:40 53° E 17:52:35 10° NNE
Cosmos 2327 Rocket 4.5 17:41:39 10° N 17:47:53 71° E 17:54:00 10° SSE
COSMO-SKYMED 1 2.8 17:45:12 10° NNE 17:49:35 81° WNW 17:53:55 10° SSW
ISS -2.4 17:48:09 10° SSW 17:50:49 22° SE 17:53:29 10° E
ERBS 3.2 17:47:50 10° NW 17:51:01 36° NNE 17:54:11 10° E
NOAA 11 4.3 17:46:46 10° SSE 17:52:09 59° ENE 17:57:32 10° N
GEOS 3 Rocket 3.9 17:50:10 10° ESE 17:55:06 51° NE 18:00:04 10° NW
COSMOS 2428 3.4 17:51:20 10° NW 17:56:56 61° WSW 18:02:30 10° S
ARGOS 4.3 17:58:38 10° ESE 18:02:52 24° ENE 18:07:08 10° N
Cosmos 2151 Rocket 4.5 18:01:07 10° SSW 18:05:26 55° WNW 18:09:47 10° N
Meteor 1-4 Rocket 3.3 18:02:54 10° N 18:06:07 31° ENE 18:09:16 10° SE
USA 186 3.0 18:05:40 10° SE 18:08:34 26° ENE 18:11:28 10° N
Cosmos 2227 Rocket 2.9 18:05:14 10° SSE 18:10:10 32° ESE 18:15:07 10° NE
Cosmos 1455 Rocket 4.2 18:07:34 10° SE 18:11:06 24° E 18:14:41 10° NE
YAOGAN 6 4.3 18:09:45 10° SSW 18:13:12 38° W 18:16:42 10° NNW
CZ-2D R/B 3.3 18:09:34 10° SSE 18:13:22 83° WSW 18:17:13 10° NNW
CZ-4 R/B 3.3 18:10:41 10° SSW 18:14:15 33° W 18:17:53 10° NNW
SJ-6B 3.7 18:11:20 10° SE 18:14:58 31° ENE 18:18:34 10° N
SPOT 3 Rocket 4.1 18:10:27 10° SE 18:15:10 38° ENE 18:19:54 10° N
Cosmos 2219 3.3 18:10:11 10° S 18:15:48 57° ESE 18:21:26 10° NE
Cosmos 1371 Rocket 4.2 18:10:46 10° S 18:15:52 48° ESE 18:21:01 10° NNE
CZ-2C R/B 4.5 18:14:50 12° ESE 18:18:22 22° ENE 18:22:36 10° N
Cosmos 2297 Rocket 2.6 18:15:03 10° S 18:20:15 39° ESE 18:25:29 10° NE
Cosmos 676 Rocket 4.2 18:20:03 10° NNW 18:25:13 53° ENE 18:30:06 11° SE
Cosmos 1023 Rocket 4.4 18:24:34 10° NNW 18:29:45 70° ENE 18:34:49 10° SSE
Meteor 2-17 Rocket 4.4 18:26:01 10° N 18:32:05 62° ENE 18:38:04 10° SSE
MOS 1 4.3 18:28:56 10° SSE 18:34:38 83° ENE 18:40:21 10° NNW
Lacrosse 5 rocket 1.5 18:31:26 10° SSW 18:34:51 40° SE 18:37:12 18° ENE
Okean 1 Rocket 3.7 18:31:56 10° SSW 18:36:13 59° WNW 18:40:34 10° N
In-Cosmos 22 4.1 18:31:00 10° N 18:36:24 78° ENE 18:41:54 10° SSE
Cosmos 405 Rocket 2.7 18:33:29 10° S 18:37:05 53° E 18:40:44 10° NNE
GENESIS II 4.4 18:33:26 10° NW 18:37:34 77° SW 18:40:52 15° SSE
Cosmos 2341 Rocket 4.0 18:32:48 10° N 18:39:06 83° E 18:45:19 10° S
Cosmos 2181 Rocket 4.1 18:33:36 10° SSE 18:39:41 55° E 18:45:53 10° NNE
Cosmos 1939 Rocket 3.8 18:36:59 10° S 18:40:42 47° W 18:44:29 10° NNW
Cosmos 1190 Rocket 4.2 18:35:56 10° NNW 18:41:15 76° WSW 18:46:29 10° SSE
H-2A R/B 2.2 18:40:24 15° SE 18:44:14 48° ENE 18:49:07 10° N
Cosmos 1437 Rocket 3.0 18:42:52 10° N 18:46:33 46° ENE 18:48:19 26° SE
Cosmos 1674 3.1 18:43:25 10° N 18:46:58 40° ENE 18:48:20 28° ESE
Cosmos 614 Rocket 4.4 18:42:12 10° NNW 18:47:23 64° WSW 18:52:29 10° S
Resurs 1-3 4.2 18:47:35 25° ESE 18:49:29 37° ENE 18:53:33 10° N
Cosmos 2237 Rocket 2.8 18:44:18 10° NW 18:49:55 59° WSW 18:55:30 10° S
Cosmos 2333 Rocket 4.4 18:45:23 10° NW 18:49:57 25° WSW 18:54:31 10° SSW
Meteor 1-15 Rocket 4.3 18:44:32 10° S 18:50:21 84° E 18:56:17 10° NNE
Cosmos 1602 Rocket 4.4 18:46:30 10° N 18:50:21 30° ENE 18:51:23 27° E
Cosmos 2366 rocket 4.1 18:45:32 10° N 18:51:52 62° ENE 18:58:01 11° SSE
ADEOS Rocket 3.8 18:45:20 10° NNE 18:52:27 46° E 18:59:51 10° SSE
Cosmos 2218 Rocket 4.0 18:46:21 10° N 18:52:43 66° ENE 18:58:58 10° SSE
Cosmos 1850 Rocket 4.5 18:53:09 10° NNW 18:58:05 41° ENE 19:00:08 29° ESE
Ariane Rocket 4.3 18:53:49 10° SSW 18:58:36 41° W 19:03:24 10° NNW
Meteor 1-24 Rocket 3.9 18:53:11 10° N 18:58:56 60° ENE 19:03:15 19° SSE
SL-8 Rocket 3.9 18:53:58 10° N 19:00:12 85° E 19:06:22 10° S
FREGAT/IRIS 3.8 18:57:51 10° S 19:00:30 39° W 19:03:12 10° NNW
Cosmos 389 Rocket 3.9 18:57:24 10° NNW 19:00:37 38° W 19:03:49 10° SSW
Resurs 01 Rocket 2.1 19:02:49 33° ESE 19:04:00 40° ENE 19:08:11 10° N
CZ-2C R/B 3.5 18:59:58 10° NNE 19:04:27 86° ESE 19:08:53 10° SSW
Cosmos 1892 Rocket 4.2 19:03:51 10° NNW 19:08:13 56° W 19:12:31 10° S
Cosmos 1805 3.2 19:06:57 30° SSE 19:08:39 56° E 19:12:29 10° NNE
USA 234 4.0 19:03:01 10° ENE 19:09:16 49° NNW 19:15:32 10° W
SAR-Lupe-2 4.2 19:06:35 10° N 19:10:06 56° WNW 19:13:35 10° SSW
Cosmos 1959 Rocket 4.4 19:06:13 10° N 19:12:24 87° E 19:18:26 11° S
Cosmos 2056 Rocket 3.8 19:08:59 10° SSW 19:14:23 71° WNW 19:19:48 10° NNE
ASTEX 1 4.1 19:10:13 10° N 19:15:00 55° WNW 19:19:46 10° SSW
Cosmos 1420 Rocket 4.0 19:12:03 10° S 19:17:16 61° ESE 19:22:32 10° NNE
Cosmos 1603 4.4 19:13:08 10° NNW 19:18:23 37° NE 19:19:52 31° E
CZ-4C R/B 4.3 19:14:17 10° NW 19:19:24 24° N 19:24:41 12° ENE
ERS-1 Rocket 4.5 19:20:52 20° ENE 19:20:52 20° ENE 19:24:24 10° NNE
KORONAS-FOTON 3.6 19:17:51 10° N 19:21:40 89° ENE 19:22:29 53° S
CZ-2C R/B 4.2 19:18:27 10° NE 19:21:05 20° ENE 19:21:05 20° ENE
SL-16 R/B 2.2 19:17:19 10° NNW 19:23:01 80° WSW 19:26:04 29° SSE
ISS -3.6 19:23:56 10° WSW 19:26:55 70° WSW 19:26:55 70° WSW
ERBS 3.0 19:24:13 10° WNW 19:27:28 44° SW 19:27:32 44° SW
RESURS DK-1 2.3 19:23:24 10° NNW 19:27:32 62° ENE 19:27:47 61° ENE
SL-08 RB Rocket 3.6 19:26:58 42° SSE 19:28:33 81° ENE 19:33:15 10° NNW
SL-8 R/B 3.6 19:24:21 10° W 19:29:09 77° SSW 19:30:06 56° ESE
Cosmos 1741 Rocket 4.0 19:24:22 10° NNW 19:29:43 70° ENE 19:31:10 47° SE
Cosmos 1626 3.5 19:26:45 10° N 19:28:57 27° NNE 19:28:57 27° NNE
Cosmos 2084 Rocket 3.9 19:26:57 10° SW 19:31:23 63° NW 19:35:37 11° NE
MetOp-B 4.5 19:30:54 42° E 19:31:40 45° ENE 19:36:46 10° N
Meteor 2-5 Rocket 4.3 19:27:43 10° NNW 19:33:28 59° W 19:39:13 10° S
Spot 2 Rocket 3.7 19:34:38 48° E 19:35:07 50° ENE 19:40:00 10° N
Cosmos 1733 4.1 19:39:10 37° NNE 19:39:10 37° NNE 19:41:37 10° NNE
Cosmos 2082 3.7 19:33:25 10° SSW 19:39:09 89° WNW 19:44:56 10° NNE
USA 186 4.2 19:36:55 12° SSW 19:39:27 24° W 19:42:18 10° NW
Meteor 1-22 Rocket 4.3 19:34:56 10° S 19:41:02 90° WSW 19:47:11 10° NNE
Terra 3.8 19:42:20 15° NE 19:42:20 15° NE 19:44:13 10° NNE
ARGOS 3.5 19:39:17 22° S 19:42:44 62° WSW 19:48:06 10° NNW
Cosmos 1455 Rocket 4.4 19:44:33 10° SW 19:48:44 39° WNW 19:52:57 10° N
SL-14 R/B 3.8 19:45:51 10° N 19:48:58 52° N 19:48:58 52° N
Cosmos 2227 Rocket 3.1 19:48:32 10° SW 19:54:00 49° NW 19:59:33 10° NNE
DMSP B5D2-2 4.1 19:51:07 10° NNE 19:56:01 63° ENE 19:56:01 63° ENE
Cosmos 1934 Rocket 4.2 19:50:50 10° N 19:56:47 49° ENE 19:56:55 49° E
MetOp-A 4.3 19:55:16 43° S 19:57:00 69° WSW 20:02:23 10° NNW
CZ-2C R/B 3.3 19:55:55 43° S 19:57:40 70° WSW 20:03:17 10° NNW
Cosmos 2297 Rocket 3.4 19:58:58 10° WSW 20:04:18 41° NW 20:09:40 10° NNE
Cosmos 1452 Rocket 3.8 20:03:21 10° SW 20:08:33 65° WNW 20:13:48 10° NNE
Cosmos 1825 Rocket 4.5 20:09:16 10° N 20:12:10 41° N 20:12:10 41° N
Lacrosse 5 rocket 2.7 20:10:27 10° W 20:12:54 33° WNW 20:12:54 33° WNW
USA 245 4.2 20:14:09 74° ENE 20:14:11 74° ENE 20:19:40 10° N
Cosmos 1943 3.3 20:17:13 10° NNW 20:22:30 69° NNE 20:22:30 69° NNE
H-2A R/B 3.9 20:21:02 16° SW 20:23:55 25° W 20:28:07 10° NW
Nadezhda 3 Rocket 4.1 20:30:14 54° SW 20:31:37 72° WNW 20:37:51 10° N
ADEOS Rocket 4.4 20:30:56 10° N 20:37:55 48° WNW 20:45:14 10° SW
Resurs 01 Rocket 3.5 20:40:24 25° W 20:40:37 25° W 20:44:19 10° NW
Cosmos 1605 Rocket 4.2 20:36:00 10° N 20:41:34 63° NNE 20:41:34 63° NNE
Cosmos 1821 Rocket 4.5 20:38:54 10° NNW 20:44:50 52° W 20:45:40 49° WSW
USA 234 4.0 20:49:56 39° NE 20:51:37 46° N 20:57:50 10° WNW
ERS-1 Rocket 4.1 21:00:53 40° NNW 21:00:53 40° NNW 21:04:09 10° NNW
SPOT 5 4.3 21:05:28 36° NNW 21:05:28 36° NNW 21:08:27 10° NNW
CZ-2C R/B 3.4 20:58:06 10° N 21:02:35 52° NNW 21:02:35 52° NNW
CZ-4C R/B 3.4 21:03:08 10° NW 21:09:38 46° NE 21:09:50 45° NE
Terra 3.8 21:21:14 26° NNW 21:21:14 26° NNW 21:23:18 10° NNW
Cosmos 2082 Rocket 4.4 21:33:04 10° N 21:36:22 16° NNE 21:36:22 16° NNE
Cosmos 2263 Rocket 4.0 22:00:09 26° N 22:00:09 26° N 22:02:45 10° NNE
USA 234 4.5 22:37:17 35° NW 22:37:17 35° NW 22:40:47 10° NW
CZ-4C R/B 4.1 22:51:35 10° NW 22:54:59 32° NW 22:54:59 32° NW
Cosmos 2082 Rocket 4.4 23:16:17 10° NNW 23:18:11 21° NNW 23:18:11 21° NNW
